Location: ??????????
(54.4061°N, 22.6114°E)
Time: 19:05:06
(UTC+00:00)

NOSS 3-2 (A) - Pass Details

Date: 23 October 2019
Orbit: 815 x 1393 km, 63.4° (Epoch: 19 November)

Event Time Altitude Azimuth Distance (km) Brightness Sun altitude
Rises 17:54:55 0° 231° (SW) 3,456 6.9 -23.9°
Reaches altitude 10° 17:57:16 10° 232° (SW) 2,574 6.2 -24.2°
Maximum altitude 18:03:16 83° 320° (NW) 998 3.5 -25.1°
Enters shadow 18:06:32 33° 46° (NE) 1,672 4.4 -25.5°
